Location: Izdebno
(52.6670°N, 16.2170°E)
Time: 03:47:58
(UTC+02:00)

SR - Pass Details

Date: 29 February 2024
Orbit: 577 x 862 km, 66.7° (Epoch: 22 April)

Event Time Altitude Azimuth Distance (km) Brightness Sun altitude
Rises 12:37:23 0° 156° (SSE) 3,436 ? 29.3°
Reaches altitude 10° 12:41:13 10° 131° (SE) 2,493 ? 29.2°
Maximum altitude 12:43:52 13° 104° (ESE) 2,240 ? 29.2°
Drops below altitude 10° 12:46:30 10° 76° (ENE) 2,458 ? 29.1°
Sets 12:50:13 0° 51° (NE) 3,350 ? 29.0°
